Regional Weather Roundup
Issued by NWS State College, PA

Home | Current Version | Previous Version | Text Only | Print | Product List | Glossary On
Versions: 1 2 3 4 5 6 7 8 9 10 11 12 13 14 15 16 17 18 19 20 21 22 23 24 25 26 27 28 29 30 31 32 33 34 35 36 37 38 39 40 41 42 43 44 45 46 47 48 49 50
000
ASUS41 KCTP 240310
RWRCTP

REGIONAL WEATHER ROUNDUP
NATIONAL WEATHER SERVICE STATE COLLEGE PA
1100 PM EDT WED JUL 23 2014

Note: "fair" indicates few or no clouds below 12,000 feet with no
significant weather and/or obstructions to visibility.

* = STATION THAT DOES NOT REPORT PRECIPITATION /E.G. RAIN...SNOW...ETC/
    THUNDER OR FOG.

PAZ002>004-007>009-013>016-020>023-029>032-240400-
WESTERN PENNSYLVANIA

CITY           SKY/WX    TMP DP  RH WIND       PRES   REMARKS
ERIE           CLOUDY    67  55  65 N9        30.03R
MEADVILLE      CLOUDY    63  57  81 N8        30.03S
FRANKLIN*      CLOUDY    63  57  82 N8        30.03S
NEW CASTLE       N/A     63  60  90 CALM      30.04R
BEAVER COUNTY  NOT AVBL
BUTLER*        CLOUDY    64  59  82 W6        30.03S
PITTSBURGH INT CLOUDY    67  60  78 N10       30.01S
PITTSBURGH     CLOUDY    67  59  75 N3        30.00R
INDIANA*       CLOUDY    66  63  88 NW5       30.04S
LATROBE        CLOUDY    68  64  88 CALM      30.00F
WASHINGTON CO* CLOUDY    66  61  82 N7        30.02R
$$

PAZ004>006-010>012-017>019-024>028-033>037-041-042-045-046-049>053-240400-
CENTRAL PENNSYLVANIA

CITY           SKY/WX    TMP DP  RH WIND       PRES   REMARKS
BRADFORD       CLOUDY    62  56  80 N7        30.02R
DUBOIS         MOCLDY    65  61  87 NW5       29.99S
CLEARFIELD     MOCLDY    65  62  90 NW5       29.98S
JOHNSTOWN      CLOUDY    64  61  90 N9        30.01S
ALTOONA        CLOUDY    72  65  78 N10       29.97S
STATE COLLEGE  CLOUDY    70  64  79 N8        29.95S
WILLIAMSPORT   MOCLDY    72  63  73 NW5       29.89F
SELINSGROVE    CLOUDY    75  65  70 VRB6      29.89F
FT INDIANTOWN  CLEAR     71  71 100 VRB2      29.87F
CAPITAL CITY   CLEAR     78  67  68 NW6       29.86S
HARRISBURG     MOCLDY    74  70  87 E5        29.86S
YORK           PTCLDY    70  69  97 CALM      29.87F FOG
$$

PAZ038>040-043-044-047-048-054-055-060>062-067>071-240400-
EASTERN PENNSYLVANIA

CITY           SKY/WX    TMP DP  RH WIND       PRES   REMARKS
SCRANTON       CLOUDY    72  63  73 N5        29.92S
MOUNT POCONO   CLOUDY    66  62  87 NW14      29.93R
ALLENTOWN      CLOUDY    72  70  94 CALM      29.86F FOG
QUAKERTOWN*    CLOUDY    72  72 100 NW3       29.87F
READING        MOCLDY    73  70  90 N5        29.85F
LANCASTER      PTCLDY    70  68  93 CALM      29.86F FOG
COATESVILLE    CLOUDY    68  68 100 CALM      29.87F
POTTSTOWN      CLOUDY    71  69  93 N3        29.86F
BLUE BELL      CLOUDY    72  70  94 CALM      29.83F
DOYLESTOWN     CLOUDY    71  71 100 NW3       29.84F
WILLOW GROVE   NOT AVBL
NORTH PHILA    CLOUDY    74  69  85 W7        29.83F
PHILADELPHIA   CLOUDY    75  68  78 NW9       29.84F
$$



USA.gov is the U.S. government's official web portal to all federal, state and local government web resources and services.